Miscellaneous Local Product
Issued by NWS North Platte, NE

Home | Current Version | Previous Version | Text Only | Print | Product List | Glossary On
Versions: 1 2 3 4 5 6 7 8 9 10 11 12 13 14 15 16 17 18 19 20 21 22 23 24 25 26 27 28 29 30 31 32 33 34 35 36 37 38 39 40 41 42 43 44 45 46 47 48 49 50
000
AXUS43 KLBF 050210
MISLBF


WESTERN AND NORTH CENTRAL NEBRASKA HOURLY WEATHER ROUNDUP
NATIONAL WEATHER SERVICE NORTH PLATTE NE
900 PM CDT TUE AUG 04 2015

***STATIONS NOT REPORTING VARIABLES SUCH AS SKY/WEATHER OR
PRESSURE ARE PROVIDED BY THE NEBRASKA DEPARTMENT OF
ROADS...RAWS...AND APRS NETWORKS...AND ARE NOT UNDER
NATIONAL WEATHER SERVICE QUALITY CONTROL***

...OBSERVATIONS IN AND NEAR THE EASTERN PANHANDLE OF NEBRASKA...

CITY           SKY/WX    TMP DP  RH WIND       PRES   REMARKS
PINE RIDGE     CLEAR     71  61  70 E7        29.99R
CHADRON        MOCLDY    72  61  68 W3        29.98R
ALLIANCE       MOCLDY    69  60  73 SE3       30.02R
SIDNEY         PTCLDY    68  59  73 S5        30.04R
BIG SPRINGS      N/A     69  65  87 CALM        N/A
$$

...OBSERVATIONS IN NORTH CENTRAL NEBRASKA...

CITY           SKY/WX    TMP DP  RH WIND       PRES   REMARKS
THEDFORD       CLOUDY    71  64  77 SE5       29.99R
AINSWORTH      MOCLDY    71  66  85 SE5       29.98S
O`NEILL        CLOUDY    72  66  81 E6        29.97S
ORD            CLOUDY    65  62  90 W3        29.96R
BROKEN BOW     CLOUDY    67  64  90 N7        29.98R
SPRINGVIEW       N/A     72  66  82 CALM        N/A
CHAMBERS         N/A     70  64  81 E3          N/A
EWING            N/A     70  66  86 E3          N/A
$$

...OBSERVATIONS IN SOUTHWEST NEBRASKA AND FAR NORTHEAST COLORADO...

CITY           SKY/WX    TMP DP  RH WIND       PRES   REMARKS
WRAY           FAIR      74  59  59 CALM      30.01R
HOLYOKE        FAIR      72  64  78 CALM      30.01R
IMPERIAL       MOCLDY    69  63  81 NE7       29.98R
OGALLALA       MOCLDY    69  63  80 NE6       30.00R
NORTH PLATTE   MOCLDY    67  64  90 CALM      29.98S
MCCOOK         CLOUDY    65  63  93 NW6       29.97R
LEXINGTON      CLOUDY    65  64  95 SW5       29.98R
PAXTON           N/A     68  63  84 CALM        N/A
BRADY            N/A     67  64  90 CALM        N/A
CALLAWAY         N/A     68  67  97 CALM        N/A
$$

...NORTH PLATTE AREA...

CITY           SKY/WX    TMP DP  RH WIND       PRES   REMARKS
AIRPORT        MOCLDY    67  64  90 CALM      29.98S
DOWNTOWN         N/A     68  65  90 CALM        N/A
SANDRIDGE        N/A     68  64  88 CALM        N/A
HILLCREST        N/A     67  64  91 NE6         N/A
$$

...SOME WEATHER OBSERVATIONS FROM AROUND THE REGION...

CITY           SKY/WX    TMP DP  RH WIND       PRES   REMARKS
DENVER         PTCLDY    79  44  28 N6        30.09R
LARAMIE        MOCLDY    70  42  36 W12       30.21R
CHEYENNE       MOCLDY    68  54  60 MISG      30.17R
SCOTTSBLUFF    MOCLDY    69  65  86 SE3       30.02R
RAPID CITY     MOCLDY    74  60  61 SE5       29.96R
PIERRE         MOCLDY    77  58  51 SE13      29.93R
WINNER         FAIR      75  64  68 SE12      29.95S
SIOUX FALLS    MOCLDY    71  62  73 E7        29.99S
OMAHA          CLOUDY    74  66  76 SE9       29.96S
GRAND ISLAND   CLOUDY    67  64  90 CALM      29.96R
KANSAS CITY    CLOUDY    72  70  93 E10       29.94F
WICHITA        CLOUDY    79  70  74 SE7       29.96R
HAYS           CLOUDY    75  61  60 NE15      29.95R
LIBERAL        PTCLDY    84  64  51 S7        29.92R
GOODLAND       PTCLDY    71  64  78 SE6       30.01R
$$



USA.gov is the U.S. government's official web portal to all federal, state and local government web resources and services.